User: anonymous   Login
Location: Unspecified
(0.0000°N, 0.0000°E)
Time: 21:55:21
(UTC+00:00)
Language:

BEIDOU IGSO 5 - Orbit

View from above orbital plane
View from above orbital plane
View from above satellite
View from above satellite

Ground track
Ground track

The orbit is defined by the following mean orbital elements,

1 37948U          26145.31682316 +.00000000 +00000-0 +00000-0 0 00002
2 37948  47.7207 271.8266 0112255 220.8090 316.1246  1.00254419    08
Epoch (UTC): 25 May 2026 07:36:13
Eccentricity: 0.0112255
inclination: 47.7207°
perigee height: 35318 km
apogee height: 36265 km
right ascension of ascending node: 271.8266°
argument of perigee: 220.8090°
revolutions per day: 1.00254419
mean anomaly at epoch: 316.1246°

The dashed part of the orbit path shows where the satellite is in the earth's shadow,  

DLR